Hourly Data Report for October 16, 2016

All times are specified in Local Standard Time (LST). Add 1 hour to adjust for Daylight Saving Time where and when it is observed.

KUGLUKTUK A
NUNAVUT

67°49'00.000" N
115°08'38.000" W
22.60 m
2300903
71938
YCO

Download Data

Hourly Data (October 2016)
Hourly Data Report for October 16, 2016
Temp Definition
°C
Dew Point Temp Definition
°C
Rel Hum Definition
%
Wind Dir Definition
10's deg

Wind Spd Definition
km/h
Visibility Definition
km
Stn Press Definition
kPa
Hmdx Definition


Wind Chill Definition


Weather Definition


TIME
00:00 Legend Double Dagger -7.7 -9.2 89 24 16 4.8 100.67   -14 Snow
01:00 Legend Double Dagger -7.5 -9.0 89 25 20 4.8 100.67   -15 Snow,Blowing Snow
02:00 Legend Double Dagger -7.0 -8.2 91 22 12 4.8 100.66   -12 Snow
03:00 Legend Double Dagger -7.0 -8.2 91 19 13 9.7 100.69   -13 Snow
04:00 Legend Double Dagger -7.2 -8.4 91 14 6 9.7 100.73   -10 Snow
05:00 Legend Double Dagger -7.1 -8.3 91 20 9 4.8 100.77   -11 Snow
06:00 Legend Double Dagger -6.5 -7.7 91 17 5 3.2 100.81   -9 Snow
07:00 Legend Double Dagger -4.9 -6.4 89 7 17 4.0 100.83   -11 Snow
08:00 Legend Double Dagger -4.5 -7.0 83 5 28 3.2 100.87   -12 Snow,Blowing Snow
09:00 Legend Double Dagger -4.2 -5.9 88 5 30 3.2 100.92   -12 Snow,Blowing Snow
10:00 Legend Double Dagger -4.5 -6.8 84 10 28 1.6 100.97   -12 Snow,Blowing Snow
11:00 Legend Double Dagger -5.7 -7.4 88 12 14 6.4 101.02   -11 Snow
12:00 Legend Double Dagger -5.7 -7.8 85 11 13 12.9 101.09   -11 Snow
13:00 Legend Double Dagger -5.9 -8.5 82 13 12 16.1 101.11   -11 Snow
14:00 Legend Double Dagger -6.2 -9.0 81 11 14 16.1 101.17   -12 Snow
15:00 Legend Double Dagger -6.7 -9.3 82 11 16 12.9 101.22   -13 Snow
16:00 Legend Double Dagger -7.5 -10.1 82 11 9 12.9 101.28   -12 Snow
17:00 Legend Double Dagger -8.5 -11.2 81 15 7 16.1 101.30   -12 Snow
18:00 Legend Double Dagger -7.5 -10.7 78 14 9 12.9 101.34   -12 Snow
19:00 Legend Double Dagger -7.5 -10.5 79 15 13 12.9 101.38   -13 Snow
20:00 Legend Double Dagger -8.2 -11.1 80 13 4 19.3 101.43   -10 Snow
21:00 Legend Double Dagger -9.6 -11.8 84 12 13 19.3 101.46   -16 Snow
22:00 Legend Double Dagger -9.9 -12.4 82 13 9 24.1 101.51   -15 Snow Showers
23:00 Legend Double Dagger -12.7 -15.0 83 22 13 24.1 101.51   -20 Snow Showers

Notes on Data Quality.

Legend

  • E = Estimated
  • M = Missing
  • NA = Not Available
  • ‡ = Partner data that is not subject to review by the National Climate Archives
Date modified: